ATLAS 5 CENTAUR DEB, 44690

Orbit data source: Space-Track

ATLAS 5 CENTAUR DEB, 44690 is space debris in HEO originally from a launch on Wed, 17 Oct 2018 UTC launched from the Air Force Eastern Test Range (AFETR). Debris objects in space refer to the collection of defunct objects orbiting the Earth. Examples of debris include non-operational satellites, rocket bodies, and fragments generated from explosions, collisions, or faulty payload assembly.

Loading next visibility...
Identifier
44690, 2018-079BC
Orbit
HEO
Country
Flag of USUS
Related business
Flag of USUnited Launch Alliance/Lockheed Martin (US)
Manufacturer
ULA Decatur
Mission
Spacecraft
Bus & Motor
Unknown
Mass
Unknown
Launch date (UTC)
2018-10-17 (8 years ago)
Launch vehicle
Unknown
Launch site
Air Force Eastern Test Range (AFETR)
Object type
Payload
Rocket body
Debris
Shape & HBR
Unknown shape, 1.1 m
Radar Cross Section
Medium (>0.1 m² and <1 m²)

Expand to show TLE details & history
Last TLE update: 1 day ago

TLE from 1 day ago
0 ATLAS 5 CENTAUR DEB
1 44690U 18079BC  26248.50127425 -.00000166  00000-0  00000+0 0  9999
2 44690  13.1289  29.6482 4403306 334.1746   9.1218  1.88483149 48614
Epoch: 2026-09-05T12:01Z
TLE epoch observation values (Epoch: 2026-09-05T12:01:50.095Z)
Latitude
0.00001°
Longitude
-135.39065°
Altitude
9,591.273 km
Speed
5.96 km/s
True Right ascension
01h 58m 42s
True Declination
0° 00' 00"
Sunlit
Object was in daylight at epoch
Visualization orbit readout
Latitude
Unknown
Longitude
Unknown
Altitude
Unknown
Speed
Unknown
Apparent Right ascension
Unknown
Apparent Declination
Unknown
Sunlit
N/A
Visualization observer readout
Local Sidereal Time
12:39:28
Azimuth
Unknown
Elevation
Unknown
Doppler factor
Unknown
Orbital elements
Apogee altitude
33,498.124 km
Perigee altitude
9,116.585 km
Semi-major axis
27,685.491 km
Eccentricity
0.44033
Inclination
13.1289°
RAAN
29.6482°
Arg. of periapsis
334.1746°
True anomaly
25.61556°
Mean anomaly
9.1218°
Eccentric anomaly
16.13154°
Mean motion
0.47116 °/min
Orbital period
764.08 mins
BSTAR
0
Loading maneuver chart data...
Computing Atmospheric mass density...

Documentation

Showing up to 5 results
|